Flag for U.S.A. Weather past 2 weeks in Wichita, Kansas, U.S.A.

Now
82 °F

Passing clouds.


Feels Like: 86 °F
Forecast: 76 / 98 °F
Wind: 12 mph from Southeast

Location: Wichita Mid-Continent Airport

Current Time: Jul 24, 2014 at 10:58:05 PM

Latest Report: Jul 24, 2014 at 9:53 PM


Visibility: 10 mi

Pressure: 29.91 "Hg

Humidity: 67%

Dew point: 70 °F

Location of WichitaLocation

Historic Weather in Wichita — Graph

°F

Wichita temperature yesterday

Maximum temperature yesterday: 90 °F (at 3:53 PM)
Minimum temperature yesterday: 75 °F (at 6:53 AM)
Average temperature yesterday: 81 °F

Past Weeks' High & Low Weather Summary

 TemperatureHumidityPressure
High95 °F (Jul 21, 3:53 PM)100% (Jul 10, 5:53 AM)30.18 "Hg (Jul 10, 5:53 AM)
Low56 °F (Jul 15, 5:53 AM)34% (Jul 15, 5:53 PM)29.82 "Hg (Jul 20, 5:53 PM)
Average75 °F70%30.00 "Hg
* Reported Jul 9 8:53 PM — Jul 24 8:53 PM, Wichita, Weather by CustomWeather, © 2014

Note: Actual official high and low records may vary slightly from our data, if they occured in-between our weather recording intervals... More about our weather records

Advertising

Wichita weather history for previous 24 hours

 ConditionsComfort  
Time TempWeatherWind HumidityBarometerVisibility
8:53 PM
Jul 24
83 °FScattered clouds.13 mph65%29.90 "Hg10 mi
7:53 PM86 °FScattered clouds.13 mph59%29.89 "Hg10 mi
6:53 PM88 °FPassing clouds.20 mph54%29.89 "Hg10 mi
5:53 PM89 °FPassing clouds.16 mph52%29.92 "Hg10 mi
4:53 PM90 °FPassing clouds.16 mph50%29.94 "Hg10 mi
3:53 PM89 °FPassing clouds.16 mph52%29.96 "Hg10 mi
2:53 PM88 °FPassing clouds.14 mph52%29.98 "Hg10 mi
1:53 PM87 °FPassing clouds.13 mph51%30.01 "Hg10 mi
12:53 PM86 °FSunny.14 mph55%30.02 "Hg10 mi
11:53 AM83 °FSunny.12 mph61%30.04 "Hg10 mi
10:53 AM81 °FSunny.12 mph62%30.05 "Hg10 mi
9:53 AM78 °FSunny.12 mph66%30.06 "Hg10 mi
8:53 AM75 °FSunny.13 mph74%30.06 "Hg10 mi
7:53 AM73 °FSunny.12 mph76%30.06 "Hg10 mi
6:53 AM70 °FPassing clouds.7 mph81%30.05 "Hg10 mi
5:53 AM70 °FPassing clouds.6 mph81%30.04 "Hg10 mi
4:53 AM70 °FPassing clouds.6 mph84%30.04 "Hg10 mi
3:53 AM71 °FClear.7 mph81%30.04 "Hg10 mi
2:53 AM72 °FClear.7 mph78%30.06 "Hg10 mi
1:53 AM74 °FClear.6 mph74%30.06 "Hg10 mi
12:53 AM74 °FPassing clouds.5 mph74%30.08 "Hg10 mi
11:53 PM
Jul 23
76 °FClear.7 mph69%30.08 "Hg10 mi
10:53 PM78 °FClear.6 mph62%30.09 "Hg10 mi
Weather by CustomWeather, © 2014

See weather overviewHow to use our weather pages